Location: Newark
(47.0167°N, 8.3000°E)
Time: 02:17:15
(UTC+00:00)

OTV 5 (USA 277) - Visible Passes

Search period start: 24 October 2019 00:00
Search period end: 03 November 2019 00:00
Orbit: 310 x 324 km, 54.5° (Epoch: 17 October)

Date Brightness Start Highest point End Pass type
(mag) Time Alt. Az. Time Alt. Az. Time Alt. Az.
28 Oct ? 18:38:36 10° SW 18:38:40 10° SW 18:38:40 10° SW visible
29 Oct ? 17:19:51 10° S 17:21:49 18° SE 17:22:16 17° ESE visible
30 Oct ? 17:33:34 10° SW 17:36:11 42° SE 17:36:39 38° ESE visible
31 Oct ? 17:47:58 10° WSW 17:50:42 77° NNW 17:50:56 68° NNE visible
01 Nov ? 18:02:45 10° W 18:05:08 36° NW 18:05:08 36° NW visible
02 Nov ? 16:42:49 10° SW 16:45:31 68° SE 16:48:16 10° ENE visible
02 Nov ? 18:17:45 10° WNW 18:19:16 20° NW 18:19:16 20° NW visible
